カタログに戻る

NOAA 17 DEB

運用中PO
NORAD 48744·DEBRIS·🇺🇸 United States

打ち上げ Jun 24, 2002 から Vandenberg Space Force Base

Loading…

次のパス (今後24時間)

TLE

最新Source: Space-Track

元期: Sep 14, 2026, 07:17 UTC

1 48744U 02032CD  26257.30356049  .00003038  00000-0  80098-3 0  9998
2 48744  98.8955 282.6247 0011751 335.2648  24.7980 14.49721498286544

AllMySatでNOAA 17 DEBをリアルタイム追跡

Download on the App Store